Home   Weather   Eindhoven   Past weeks

Flag for Netherlands Past Weather in Eindhoven, Netherlands — Yesterday and Last 2 Weeks

Now
52 °F

Mostly cloudy.


Feels Like: 48 °F
Forecast: 41 / 49 °F
Wind: 12 mph from South

Location: Eindhoven Airport

Current Time: Feb 27, 2017 at 3:58:04 am

Latest Report: Feb 27, 2017 at 3:25 am


Visibility: N/A

Pressure: 29.68 "Hg

Humidity: 77%

Dew Point: 45 °F

Location of EindhovenLocation

Past Weather in Eindhoven — Graph

°F

Eindhoven Temperature Yesterday

Maximum temperature yesterday: 50 °F (at 2:55 pm)
Minimum temperature yesterday: 43 °F (at 8:35 am)
Average temperature yesterday: 47 °F

High & Low Weather Summary for the Past Weeks

 TemperatureHumidityPressure
High61 °F (Feb 15, 1:55 pm)100% (Feb 12, 2:06 am)30.51 "Hg (Feb 12, 2:06 am)
Low30 °F (Feb 24, 11:25 pm)47% (Feb 14, 2:25 pm)29.24 "Hg (Feb 23, 2:30 pm)
Average44 °F86%30.08 "Hg
* Reported Feb 12 2:06 am — Feb 27 2:33 am, Eindhoven, Weather by CustomWeather, © 2017

Note: Actual official high and low records may vary slightly from our data, if they occured in-between our weather recording intervals... More about our weather records

Advertising

Eindhoven Weather History for the Previous 24 Hours

Scroll right to see more
 ConditionsComfort  
Time TempWeatherWind HumidityBarometerVisibility
2:33 am
Mon, Feb 27
52 °FMostly cloudy.9 mph82%29.71 "HgN/A
1:55 am52 °FOvercast.10 mph82%29.71 "HgN/A
1:25 am52 °FOvercast.13 mph77%29.74 "HgN/A
12:55 am50 °FOvercast.9 mph82%29.74 "HgN/A
12:25 am52 °FMostly cloudy.12 mph77%29.74 "HgN/A
11:55 pm
Sun, Feb 26
50 °FOvercast.13 mph82%29.74 "HgN/A
11:25 pm50 °FMostly cloudy.13 mph82%29.74 "HgN/A
10:55 pm50 °FOvercast.13 mph82%29.77 "HgN/A
10:25 pm50 °FPartly cloudy.13 mph82%29.77 "HgN/A
9:55 pm50 °FOvercast.13 mph82%29.77 "HgN/A
9:25 pm50 °FMostly cloudy.13 mph82%29.77 "HgN/A
8:55 pm50 °FOvercast.13 mph82%29.77 "HgN/A
8:25 pm50 °FOvercast.13 mph82%29.77 "HgN/A
7:55 pm50 °FOvercast.13 mph82%29.80 "HgN/A
7:25 pm50 °FOvercast.14 mph82%29.80 "HgN/A
6:55 pm50 °FOvercast.13 mph82%29.80 "HgN/A
6:40 pm50 °FOvercast.13 mph82%29.80 "HgN/A
6:32 pm50 °FOvercast.12 mph88%29.80 "HgN/A
5:55 pm50 °FOvercast.12 mph88%29.80 "HgN/A
5:42 pm50 °FOvercast.14 mph88%29.80 "HgN/A
5:32 pm50 °FBroken clouds.14 mph88%29.80 "HgN/A
5:21 pm50 °FMostly cloudy.14 mph88%29.80 "HgN/A
4:55 pm48 °FMostly cloudy.10 mph94%29.80 "HgN/A
4:37 pm48 °FLow clouds.12 mph94%29.80 "HgN/A
4:25 pm48 °FDrizzle. Broken clouds.9 mph94%29.83 "Hg6 mi
3:55 pm48 °FFog.12 mph94%29.83 "Hg6 mi
3:35 pm50 °FFog.14 mph88%29.83 "Hg4 mi
3:17 pm48 °FMostly cloudy.10 mph94%29.83 "HgN/A
3:03 pm50 °FFog.12 mph88%29.83 "Hg3 mi
2:55 pm50 °FOvercast.13 mph82%29.83 "HgN/A
2:28 pm48 °FFog.13 mph87%29.83 "Hg4 mi
1:55 pm48 °FOvercast.14 mph87%29.83 "HgN/A
1:25 pm48 °FOvercast.13 mph87%29.83 "HgN/A
12:55 pm48 °FMostly cloudy.14 mph87%29.86 "HgN/A
12:25 pm46 °FCloudy.12 mph93%29.86 "HgN/A
11:55 am46 °FLight rain. Mostly cloudy.14 mph93%29.86 "HgN/A
11:41 am46 °FFog.13 mph93%29.86 "Hg4 mi
11:32 am48 °FMostly cloudy.14 mph82%29.86 "HgN/A
10:57 am46 °FOvercast.14 mph87%29.86 "HgN/A
10:25 am46 °FOvercast.13 mph87%29.86 "HgN/A
9:55 am45 °FMore clouds than sun.12 mph93%29.86 "HgN/A
9:25 am45 °FPartly sunny.13 mph93%29.86 "HgN/A
9:06 am45 °FMostly cloudy.12 mph93%29.86 "HgN/A
8:55 am43 °FBroken clouds.10 mph93%29.86 "HgN/A
8:35 am43 °FDrizzle. Partly sunny.16 mph93%29.86 "Hg2 mi
8:18 am45 °FBroken clouds.15 mph87%29.86 "HgN/A
7:55 am45 °FOvercast.16 mph81%29.83 "HgN/A
7:25 am45 °FOvercast.14 mph81%29.83 "HgN/A
6:59 am45 °FOvercast.14 mph81%29.83 "HgN/A
6:55 am45 °FOvercast.15 mph81%29.83 "HgN/A
6:29 am45 °FMostly cloudy.13 mph76%29.83 "HgN/A
5:55 am45 °FLight rain. Partly cloudy.10 mph81%29.83 "HgN/A
5:25 am46 °FOvercast.13 mph71%29.83 "HgN/A
4:55 am46 °FOvercast.13 mph71%29.86 "HgN/A
4:25 am45 °FOvercast.13 mph76%29.86 "HgN/A
3:55 am46 °FMostly cloudy.13 mph71%29.86 "HgN/A
3:25 am46 °FMostly cloudy.12 mph71%29.89 "HgN/A
Weather by CustomWeather, © 2017

See weather overviewHow to use our weather pages